| time (UTC) | temp F | wind direction | speed MPH | gust MPH | rain 1hr in | rain 24hr in | rain mn in | humidity % | barometer mb |
| 20260906143021 | 67 | 267 | 5.0 | 12.0 | 0.00 | 0.05 | 0.01 | 52 | 1012.3 |
| 20260906140112 | 67 | 281 | 5.0 | 12.0 | 0.00 | 0.05 | 0.01 | 50 | 1012.3 |
| 20260906133102 | 68 | 260 | 5.0 | 14.0 | 0.00 | 0.05 | 0.01 | 51 | 1012.1 |
| 20260906130052 | 67 | 288 | 5.0 | 12.0 | 0.00 | 0.05 | 0.01 | 53 | 1011.9 |
| 20260906123042 | 67 | 266 | 5.0 | 15.0 | 0.00 | 0.05 | 0.01 | 54 | 1011.9 |
| 20260906120031 | 67 | 253 | 5.0 | 12.0 | 0.00 | 0.05 | 0.01 | 56 | 1011.7 |
| 20260906113022 | 66 | 276 | 4.0 | 12.0 | 0.00 | 0.05 | 0.01 | 60 | 1011.6 |
| 20260906110112 | 65 | 280 | 5.0 | 12.0 | 0.00 | 0.05 | 0.01 | 62 | 1011.4 |
| 20260906103101 | 65 | 254 | 4.0 | 9.0 | 0.00 | 0.05 | 0.01 | 66 | 1011.2 |
| 20260906100052 | 64 | 274 | 5.0 | 10.0 | 0.00 | 0.05 | 0.01 | 70 | 1011.1 |
| 20260906093042 | 62 | 289 | 4.0 | 10.0 | 0.00 | 0.05 | 0.01 | 78 | 1010.9 |
| 20260906090032 | 61 | 276 | 3.0 | 6.0 | 0.00 | 0.05 | 0.01 | 89 | 1010.6 |
| 20260906083023 | 60 | 261 | 3.0 | 8.0 | 0.00 | 0.05 | 0.01 | 98 | 1010.3 |
| 20260906080113 | 57 | 269 | 3.0 | 8.0 | 0.01 | 0.05 | 0.01 | 99 | 1010.1 |
| 20260906073124 | 56 | 253 | 2.0 | 7.0 | 0.01 | 0.05 | 0.01 | 99 | 1009.8 |
| 20260906070053 | 54 | 252 | 2.0 | 8.0 | 0.00 | 0.04 | 0.00 | 99 | 1009.4 |
| 20260906063043 | 52 | 241 | 1.0 | 7.0 | 0.00 | 0.04 | 0.00 | 99 | 1009.2 |
| 20260906060035 | 49 | 222 | 1.0 | 4.0 | 0.00 | 0.04 | 0.00 | 99 | 1009.0 |
| 20260906053025 | 47 | 114 | 1.0 | 3.0 | 0.00 | 0.04 | 0.00 | 99 | 1008.6 |
| 20260906050114 | 46 | 102 | 1.0 | 3.0 | 0.00 | 0.04 | 0.00 | 99 | 1008.2 |
| 20260906043104 | 46 | 112 | 1.0 | 3.0 | 0.00 | 0.04 | 0.00 | 99 | 1007.8 |
| 20260906040055 | 46 | 123 | 1.0 | 3.0 | 0.00 | 0.04 | 0.00 | 99 | 1007.4 |
| 20260906033045 | 46 | 101 | 1.0 | 2.0 | 0.00 | 0.04 | 0.00 | 99 | 1007.1 |
| 20260906030035 | 46 | 95 | 1.0 | 2.0 | 0.00 | 0.04 | 0.00 | 98 | 1007.0 |
| 20260906023026 | 46 | 172 | 1.0 | 2.0 | 0.00 | 0.04 | 0.00 | 98 | 1006.6 |
| 20260906020116 | 47 | 138 | 0.0 | 2.0 | 0.00 | 0.04 | 0.00 | 99 | 1006.1 |
| 20260906013106 | 47 | 140 | 0.0 | 2.0 | 0.00 | 0.04 | 0.00 | 99 | 1005.8 |
| 20260906010056 | 48 | 108 | 1.0 | 3.0 | 0.00 | 0.04 | 0.00 | 99 | 1005.4 |
| 20260906003046 | 48 | 91 | 1.0 | 3.0 | 0.00 | 0.04 | 0.00 | 98 | 1005.0 |
| 20260906000036 | 48 | 117 | 1.0 | 3.0 | 0.00 | 0.04 | 0.00 | 98 | 1004.5 |
| 20260905233026 | 48 | 94 | 1.0 | 3.0 | 0.00 | 0.05 | 0.00 | 98 | 1004.1 |
| 20260905230016 | 48 | 94 | 1.0 | 3.0 | 0.00 | 0.05 | 0.00 | 98 | 1003.8 |
| 20260905223107 | 49 | 38 | 1.0 | 3.0 | 0.00 | 0.05 | 0.00 | 97 | 1003.3 |
| 20260905220056 | 49 | 97 | 1.0 | 3.0 | 0.00 | 0.05 | 0.00 | 97 | 1002.8 |
| 20260905213046 | 49 | 91 | 1.0 | 3.0 | 0.00 | 0.05 | 0.05 | 96 | 1002.4 |
| 20260905210036 | 49 | 96 | 1.0 | 3.0 | 0.00 | 0.05 | 0.05 | 95 | 1001.9 |
| 20260905203046 | 48 | 123 | 1.0 | 2.0 | 0.00 | 0.05 | 0.05 | 94 | 1001.5 |
| 20260905200017 | 49 | 180 | 0.0 | 1.0 | 0.00 | 0.05 | 0.05 | 94 | 1001.1 |
| 20260905193107 | 50 | 180 | 0.0 | 2.0 | 0.00 | 0.05 | 0.05 | 93 | 1000.8 |
| 20260905190119 | 50 | 180 | 0.0 | 1.0 | 0.00 | 0.05 | 0.05 | 92 | 1000.5 |
| 20260905183048 | 51 | 219 | 0.0 | 2.0 | 0.00 | 0.05 | 0.05 | 91 | 1000.3 |
| 20260905180038 | 52 | 225 | 0.0 | 1.0 | 0.00 | 0.05 | 0.05 | 90 | 999.8 |
| 20260905173048 | 54 | 228 | 0.0 | 2.0 | 0.00 | 0.05 | 0.05 | 87 | 999.6 |
| 20260905170019 | 55 | 225 | 0.0 | 2.0 | 0.03 | 0.05 | 0.05 | 82 | 999.2 |
| 20260905163108 | 56 | 267 | 1.0 | 3.0 | 0.04 | 0.05 | 0.05 | 78 | 999.0 |
| 20260905160058 | 61 | 304 | 4.0 | 12.0 | 0.01 | 0.02 | 0.02 | 69 | 998.7 |
| 20260905153048 | 61 | 266 | 2.0 | 4.0 | 0.00 | 0.01 | 0.01 | 68 | 998.4 |
| 20260905150038 | 61 | 230 | 0.0 | 5.0 | 0.00 | 0.01 | 0.01 | 69 | 998.0 |